• In Uzbekistan
  • List of Countries
  • For 7 days
  • Water Temperature
  • Satellite Maps
  • Weather Map
  • Weather Widgets
  • user-avatar
    Login

    Hourly Weather Caieiras

    Today, 18 July, Wednesday

    Time Temperature Precipitation Wind Pressure Humidity
    00:00 +18°C° 0 mm 1 mps 700 mmHg 80%
    01:00 +18°C° 0 mm 1 mps 700 mmHg 78%
    02:00 +18°C° 0 mm 1 mps 700 mmHg 76%
    03:00 +16°C° 0 mm 1 mps 700 mmHg 74%
    04:00 +16°C° 0 mm 1 mps 700 mmHg 74%
    05:00 +16°C° 0 mm 1 mps 700 mmHg 74%
    06:00 +16°C° 0 mm 1 mps 700 mmHg 74%
    07:00 +18°C° 0 mm 2 mps 700 mmHg 69%
    08:00 +19°C° 0 mm 2 mps 701 mmHg 65%
    09:00 +21°C° 0 mm 2 mps 701 mmHg 60%
    10:00 +24°C° 0 mm 2 mps 701 mmHg 54%
    11:00 +26°C° 0 mm 2 mps 701 mmHg 48%
    12:00 +28°C° 0 mm 2 mps 701 mmHg 42%
    13:00 +28°C° 0 mm 2 mps 701 mmHg 41%
    14:00 +28°C° 0 mm 2 mps 701 mmHg 40%
    15:00 +28°C° 0 mm 2 mps 700 mmHg 39%
    16:00 +26°C° 0 mm 2 mps 700 mmHg 45%
    17:00 +25°C° 0 mm 1 mps 699 mmHg 51%
    18:00 +23°C° 0 mm 1 mps 699 mmHg 57%
    19:00 +22°C° 0 mm 1 mps 699 mmHg 60%
    20:00 +21°C° 0 mm 1 mps 699 mmHg 63%
    21:00 +20°C° 0 mm 1 mps 699 mmHg 66%
    22:00 +20°C° 0 mm 1 mps 699 mmHg 67%
    23:00 +20°C° 0 mm 1 mps 699 mmHg 68%

    Tomorrow, 19 July, Thursday

    Time Temperature Precipitation Wind Pressure Humidity
    00:00 +19°C° 0 mm 1 mps 699 mmHg 69%
    01:00 +19°C° 0 mm 1 mps 699 mmHg 70%
    02:00 +19°C° 0 mm 1 mps 699 mmHg 72%
    03:00 +18°C° 0 mm 1 mps 698 mmHg 73%
    04:00 +18°C° 0 mm 1 mps 698 mmHg 73%
    05:00 +18°C° 0 mm 1 mps 698 mmHg 74%
    06:00 +18°C° 0 mm 1 mps 698 mmHg 74%
    07:00 +19°C° 0 mm 1 mps 699 mmHg 69%
    08:00 +20°C° 0 mm 2 mps 700 mmHg 64%
    09:00 +21°C° 0 mm 2 mps 700 mmHg 58%
    10:00 +24°C° 0 mm 2 mps 701 mmHg 53%
    11:00 +26°C° 0 mm 2 mps 701 mmHg 47%
    12:00 +28°C° 0 mm 2 mps 701 mmHg 41%
    13:00 +28°C° 0 mm 2 mps 700 mmHg 40%
    14:00 +28°C° 0 mm 2 mps 700 mmHg 39%
    15:00 +29°C° 0 mm 2 mps 699 mmHg 38%
    16:00 +27°C° 0 mm 2 mps 699 mmHg 44%
    17:00 +25°C° 0 mm 1 mps 698 mmHg 50%
    18:00 +23°C° 0 mm 1 mps 698 mmHg 56%
    19:00 +22°C° 0 mm 1 mps 698 mmHg 58%
    20:00 +22°C° 0 mm 1 mps 699 mmHg 61%
    21:00 +21°C° 0 mm 1 mps 699 mmHg 63%
    22:00 +20°C° 0 mm 1 mps 699 mmHg 64%
    23:00 +20°C° 0 mm 1 mps 699 mmHg 66%

    Day after tomorrow, 20 July, Friday

    Time Temperature Precipitation Wind Pressure Humidity
    00:00 +20°C° 0 mm 1 mps 699 mmHg 67%
    01:00 +19°C° 0 mm 1 mps 699 mmHg 67%
    02:00 +19°C° 0 mm 1 mps 698 mmHg 68%
    03:00 +19°C° 0 mm 1 mps 698 mmHg 68%
    04:00 +18°C° 0 mm 1 mps 698 mmHg 68%
    05:00 +18°C° 0 mm 1 mps 698 mmHg 68%
    06:00 +17°C° 0 mm 2 mps 698 mmHg 68%
    07:00 +18°C° 0 mm 2 mps 698 mmHg 63%
    08:00 +20°C° 0 mm 2 mps 699 mmHg 57%
    09:00 +22°C° 0 mm 3 mps 699 mmHg 52%
    10:00 +25°C° 0 mm 3 mps 699 mmHg 47%
    11:00 +26°C° 0 mm 4 mps 699 mmHg 42%
    12:00 +28°C° 0 mm 4 mps 699 mmHg 37%
    13:00 +29°C° 0 mm 4 mps 699 mmHg 37%
    14:00 +29°C° 0 mm 4 mps 698 mmHg 36%
    15:00 +29°C° 0 mm 4 mps 698 mmHg 36%
    16:00 +27°C° 0 mm 3 mps 697 mmHg 42%
    17:00 +25°C° 0 mm 2 mps 697 mmHg 47%
    18:00 +24°C° 0 mm 2 mps 697 mmHg 53%
    19:00 +23°C° 0 mm 2 mps 697 mmHg 56%
    20:00 +21°C° 0 mm 2 mps 698 mmHg 58%
    21:00 +20°C° 0 mm 2 mps 698 mmHg 60%
    22:00 +20°C° 0 mm 2 mps 698 mmHg 61%
    23:00 +20°C° 0 mm 2 mps 698 mmHg 62%

    21 July, Saturday

    Time Temperature Precipitation Wind Pressure Humidity
    00:00 +19°C° 0 mm 2 mps 698 mmHg 62%
    01:00 +19°C° 0 mm 2 mps 697 mmHg 63%
    02:00 +19°C° 0 mm 3 mps 697 mmHg 64%
    03:00 +19°C° 0 mm 3 mps 697 mmHg 64%
    04:00 +18°C° 0 mm 3 mps 697 mmHg 64%
    05:00 +18°C° 0 mm 3 mps 697 mmHg 64%
    06:00 +18°C° 0 mm 3 mps 697 mmHg 64%
    07:00 +20°C° 0 mm 3 mps 697 mmHg 60%
    08:00 +21°C° 0 mm 3 mps 698 mmHg 56%
    09:00 +22°C° 0 mm 4 mps 699 mmHg 51%
    10:00 +25°C° 0 mm 4 mps 699 mmHg 46%
    11:00 +27°C° 0 mm 4 mps 699 mmHg 42%
    12:00 +28°C° 0 mm 5 mps 699 mmHg 37%
    13:00 +28°C° 0 mm 4 mps 699 mmHg 37%
    14:00 +28°C° 0 mm 4 mps 699 mmHg 38%
    15:00 +28°C° 0 mm 3 mps 698 mmHg 39%
    16:00 +26°C° 0 mm 3 mps 698 mmHg 46%
    17:00 +24°C° 0 mm 2 mps 698 mmHg 54%
    18:00 +21°C° 0 mm 2 mps 698 mmHg 61%
    19:00 +20°C° 0 mm 2 mps 698 mmHg 67%
    20:00 +20°C° 0 mm 2 mps 698 mmHg 72%
    21:00 +19°C° 0 mm 2 mps 699 mmHg 77%
    22:00 +18°C° 0 mm 2 mps 699 mmHg 80%
    23:00 +18°C° 0 mm 2 mps 699 mmHg 83%

    22 July, Sunday

    Time Temperature Precipitation Wind Pressure Humidity
    00:00 +17°C° 0 mm 2 mps 699 mmHg 86%
    01:00 +17°C° 0 mm 2 mps 699 mmHg 87%
    02:00 +17°C° 0 mm 2 mps 699 mmHg 87%
    03:00 +17°C° 0 mm 3 mps 699 mmHg 88%
    04:00 +17°C° 0 mm 3 mps 699 mmHg 88%
    05:00 +17°C° 0 mm 3 mps 699 mmHg 89%
    06:00 +17°C° 0 mm 3 mps 699 mmHg 89%
    07:00 +18°C° 0 mm 3 mps 700 mmHg 85%
    08:00 +18°C° 0 mm 3 mps 700 mmHg 81%
    09:00 +19°C° 0 mm 3 mps 701 mmHg 77%
    10:00 +21°C° 0 mm 3 mps 701 mmHg 71%
    11:00 +22°C° 0 mm 3 mps 701 mmHg 65%
    12:00 +24°C° 0 mm 2 mps 701 mmHg 59%
    13:00 +25°C° 0 mm 2 mps 701 mmHg 58%
    14:00 +25°C° 0 mm 2 mps 701 mmHg 57%
    15:00 +25°C° 0 mm 2 mps 700 mmHg 56%
    16:00 +24°C° 0 mm 2 mps 700 mmHg 64%
    17:00 +21°C° 0 mm 3 mps 700 mmHg 72%
    18:00 +20°C° 0 mm 3 mps 700 mmHg 79%
    19:00 +19°C° 0 mm 3 mps 700 mmHg 82%
    20:00 +19°C° 0 mm 3 mps 700 mmHg 85%
    21:00 +18°C° 0 mm 3 mps 700 mmHg 88%
    22:00 +18°C° 0 mm 2 mps 700 mmHg 89%
    23:00 +18°C° 0 mm 2 mps 700 mmHg 89%

    23 July, Monday

    Time Temperature Precipitation Wind Pressure Humidity
    00:00 +18°C° 0 mm 2 mps 700 mmHg 89%
    01:00 +17°C° 0 mm 2 mps 700 mmHg 88%
    02:00 +17°C° 0 mm 2 mps 699 mmHg 87%
    03:00 +17°C° 0 mm 2 mps 699 mmHg 87%
    04:00 +17°C° 0 mm 2 mps 699 mmHg 85%
    05:00 +17°C° 0 mm 2 mps 699 mmHg 83%
    06:00 +18°C° 0 mm 1 mps 699 mmHg 81%
    07:00 +18°C° 0 mm 2 mps 700 mmHg 77%
    08:00 +19°C° 0 mm 2 mps 701 mmHg 72%
    09:00 +20°C° 0 mm 2 mps 701 mmHg 67%
    10:00 +23°C° 0 mm 2 mps 701 mmHg 61%
    11:00 +25°C° 0 mm 2 mps 701 mmHg 55%
    12:00 +27°C° 0 mm 2 mps 701 mmHg 48%
    13:00 +27°C° 0 mm 2 mps 701 mmHg 46%
    14:00 +27°C° 0 mm 1 mps 700 mmHg 45%
    15:00 +28°C° 0 mm 1 mps 700 mmHg 43%
    16:00 +26°C° 0 mm 1 mps 700 mmHg 50%
    17:00 +24°C° 0 mm 1 mps 699 mmHg 57%
    18:00 +22°C° 0 mm 1 mps 699 mmHg 64%
    19:00 +22°C° 0 mm 1 mps 700 mmHg 67%
    20:00 +21°C° 0 mm 1 mps 700 mmHg 70%
    21:00 +21°C° 0 mm 1 mps 700 mmHg 74%
    22:00 +20°C° 0 mm 1 mps 700 mmHg 75%
    23:00 +20°C° 0 mm 1 mps 700 mmHg 76%
    Show more